This is the latest recevied weather packets stored in our database for station/object KC1HBM. If no packets are shown the sender has not sent any weather packets the latest 10 day(s).
| Time | Temp. | Humidity | Pressure | Rain* | Wind** | Luminosity | Snow |
|---|---|---|---|---|---|---|---|
| 1777812883 | 6.67° C | 93% | 1004 hPa | 0 mm | - | 23 W/m² | - |
| 1777812579 | 6.67° C | 93% | 1003.8 hPa | 0 mm | - | 25 W/m² | - |
| 1777812277 | 6.67° C | 93% | 1003.7 hPa | 0 mm | - | 26 W/m² | - |
| 1777811975 | 6.67° C | 93% | 1003.8 hPa | 0 mm | - | 30 W/m² | - |
| 1777811673 | 6.67° C | 94% | 1004 hPa | 0 mm | - | 29 W/m² | - |
| 1777811368 | 6.67° C | 94% | 1003.9 hPa | 0 mm | - | 19 W/m² | - |
| 1777811066 | 6.67° C | 94% | 1004 hPa | 0 mm | - | 19 W/m² | - |
| 1777810762 | 6.67° C | 94% | 1004.1 hPa | 0 mm | - | 17 W/m² | - |
| 1777810454 | 6.67° C | 95% | 1004 hPa | 0 mm | - | 21 W/m² | - |
| 1777810150 | 6.67° C | 95% | 1004.1 hPa | 0 mm | - | 17 W/m² | - |
| 1777809847 | 6.67° C | 95% | 1004.2 hPa | 0 mm | - | 12 W/m² | - |
| 1777809545 | 6.67° C | 96% | 1004.3 hPa | 0 mm | - | 14 W/m² | - |
| 1777809243 | 6.11° C | 96% | 1004.3 hPa | 0 mm | - | 14 W/m² | - |
| 1777808940 | 6.11° C | 97% | 1004.5 hPa | 0 mm | - | 11 W/m² | - |
| 1777808636 | 6.11° C | 97% | 1004.7 hPa | 0 mm | - | 16 W/m² | - |
| 1777808333 | 6.11° C | 97% | 1004.4 hPa | 0 mm | - | 13 W/m² | - |
| 1777808033 | 6.11° C | 98% | 1004.4 hPa | 0 mm | - | 16 W/m² | - |
| 1777807729 | 6.11° C | 98% | 1004.7 hPa | 0 mm | - | 11 W/m² | - |
| 1777807427 | 6.11° C | 98% | 1004.7 hPa | 0 mm | - | 7 W/m² | - |
| 1777807122 | 6.11° C | 98% | 1004.8 hPa | 0 mm | - | 8 W/m² | - |
| 1777806820 | 6.11° C | 98% | 1004.7 hPa | 0 mm | - | 8 W/m² | - |
| 1777806516 | 6.11° C | 99% | 1004.6 hPa | 0 mm | - | 6 W/m² | - |
| 1777806212 | 5.56° C | 99% | 1004.6 hPa | 0 mm | - | 7 W/m² | - |
| 1777805909 | 5.56° C | 99% | 1004.7 hPa | 0 mm | - | 6 W/m² | - |
| 1777805606 | 5.56° C | 99% | 1004.6 hPa | 0 mm | - | 8 W/m² | - |
* Rain latest hour (hover to see other rain measurements)
** Current wind speed in m/s (hover to see current wind gust speed)